1998-067NL

Last updated on Wed Nov 22 2017 00:15:03 GMT+0000 (Coordinated Universal Time)

1 43027U 98067NL 17325.90772199 -.00000495 00000-0 00000+0 0 9996 2 43027 51.6525 332.0923 0010993 1.4961 71.9708 15.55085892 74
UTC large
Height (km)
Speed (km/s)
/
Latitude / Longitude
Inclination (degrees)
Orbital Period (minutes)
Azimuth
Elevation
Range (km)
Doppler Factor

Next 0 passes for location: London (51.5072 / 0.1276)

Sorry there are no passes over London.